Date,TemperatureHighF,TemperatureAvgF,TemperatureLowF,DewpointHighF,DewpointAvgF,DewpointLowF,HumidityHigh,HumidityAvg,HumidityLow,PressureMaxIn,PressureMinIn,WindSpeedMaxMPH,WindSpeedAvgMPH,GustSpeedMaxMPH,PrecipitationSumIn
2013-3-1,34,31,29,29,27,23,92,85,72,0.00,40.00,8,5,16,0.02
2013-3-2,34,29,26,23,19,15,82,65,47,0.00,40.00,8,6,20,0.01
2013-3-3,39,31,19,24,18,16,88,60,38,0.00,40.00,3,2,9,0.00
2013-3-4,53,43,35,39,30,24,80,62,43,0.00,40.00,8,4,19,0.00
2013-3-5,45,36,32,34,29,19,96,74,53,0.00,40.00,14,7,31,0.14
2013-3-6,39,34,29,26,22,20,78,62,50,0.00,40.00,12,6,28,0.02
2013-3-7,47,35,23,29,26,21,92,70,46,0.00,40.00,4,2,10,0.00
2013-3-8,54,41,30,31,29,26,89,65,41,0.00,40.00,6,3,14,0.00
2013-3-9,68,52,41,39,35,29,89,56,33,0.00,40.00,8,5,21,0.25
2013-3-10,58,53,47,53,48,38,97,85,48,0.00,40.00,6,3,20,1.00
2013-3-11,47,37,34,44,31,21,90,78,57,0.00,40.00,8,6,24,0.07
2013-3-12,50,38,30,24,22,20,76,55,31,0.00,40.00,9,6,23,0.00
2013-3-13,43,35,28,25,17,14,82,50,33,0.00,40.00,9,6,25,0.00
2013-3-14,51,37,28,33,26,20,83,63,42,0.00,40.00,6,2,17,0.01
2013-3-15,71,50,31,47,38,30,97,68,34,0.00,40.00,4,1,10,0.01
2013-3-16,65,48,39,47,40,36,91,75,45,0.00,40.00,11,5,25,0.05
2013-3-17,39,36,34,36,33,28,96,87,77,0.00,40.00,6,4,17,1.26
2013-3-18,51,42,37,37,34,21,98,76,42,0.00,40.00,9,4,24,1.02
2013-3-19,48,39,31,21,15,8,62,39,21,0.00,40.00,8,4,20,0.01
2013-3-20,37,33,29,29,16,8,78,50,33,0.00,40.00,10,6,23,0.00
2013-3-21,39,30,22,18,11,9,58,46,33,0.00,40.00,4,3,12,0.00
2013-3-22,42,37,32,24,21,17,62,54,44,0.00,40.00,4,2,11,0.00
2013-3-23,56,45,38,32,25,20,58,47,33,0.00,40.00,5,3,19,0.00
2013-3-24,46,34,31,34,32,30,98,92,57,0.00,40.00,10,6,22,1.05
2013-3-25,38,33,29,30,27,23,96,81,67,0.00,40.00,8,7,23,0.22
2013-3-26,43,36,29,25,23,21,83,62,41,0.00,40.00,7,4,17,0.00
2013-3-27,49,35,23,26,24,21,94,68,35,0.00,40.00,3,1,9,0.00
2013-3-28,58,54,50,36,34,33,58,48,41,0.00,40.00,6,3,14,0.00
2013-3-29,65,53,43,44,41,35,90,66,43,0.00,40.00,4,2,12,0.00
2013-3-30,54,47,40,48,42,-100,99,89,66,0.00,40.00,6,2,16,0.16
2013-3-31,69,57,47,50,43,32,98,66,25,0.00,40.00,7,3,18,0.06